Weather History for Palm Springs, CA

Change the Weather History Date:

Saturday, February 22, 2014

  Actual Average Record
Temperature  
Mean Temperature 67 °F 61 °F  
Max Temperature 80 °F 74 °F 90 °F (1954)
Min Temperature 53 °F 49 °F 28 °F (1955)
Degree Days  
Heating Degree Days 0 4  
Month to date heating degree days 59 129  
Since 1 July heating degree days 410 756  
Cooling Degree Days 2 1  
Month to date cooling degree days 57 21  
Year to date cooling degree days 94 29  
Growing Degree Days 16 (Base 50)    
Moisture  
Dew Point 25 °F    
Average Humidity 26    
Maximum Humidity 41    
Minimum Humidity 11    
Precipitation  
Precipitation 0.00 in 0.05 in 0.91 in (2004)
Month to date precipitation 0.00 0.79  
Year to date precipitation 0.00 1.79  
Since 1 July precipitation 1.26 4.59  
Snow  
Snow 0.00 in - - ()
Month to date snowfall 0.0  
Year to date snowfall 0.0  
Since 1 July snowfall 0.0  
Snow Depth 0.00 in    
Sea Level Pressure  
Sea Level Pressure 29.89 in    
Wind  
Wind Speed 5 mph (NNE)    
Max Wind Speed 10 mph    
Max Gust Speed 13 mph    
Visibility 10 miles    
Events      
T = Trace of Precipitation, MM = Missing Value Source: NWS Daily Summary

Daily Weather History Graph

Daily Weather History Graph

Search for Another Location

Airport:

Trip Planner

Search our weather history database for the weather conditions in past years. The results will help you decide how hot, cold, wet, or windy it might be!

Date:

Astronomy

Feb. 22, 2014 Rise Set
Actual Time 6:22 AM PST 5:36 PM PST
Civil Twilight 5:57 AM PST 6:01 PM PST
Nautical Twilight 5:28 AM PST 6:30 PM PST
Astronomical Twilight 4:59 AM PST 6:59 PM PST
Moon 12:16 AM PST (2/22) 10:58 AM PST (2/22)
Length of Visible Light 12h 04m
Length of Day
11h 13m
Waning Gibbous, 49% of the Moon is Illuminated
Feb 22
Waning Gibbous
Mar 1
New
Mar 8
First Quarter
Mar 16
Full
Mar 23
Last Quarter

Hourly Weather History & Observations

Time (PST) Temp. Dew Point Humidity Pressure Visibility Wind Dir Wind Speed Gust Speed Precip Events Conditions
12:53 AM 59.0 °F 21.0 °F 23% 29.91 in 10.0 mi NW 8.1 mph - N/A   Clear
1:53 AM 57.0 °F 24.1 °F 28% 29.89 in 10.0 mi NNW 6.9 mph - N/A   Clear
2:53 AM 55.9 °F 21.9 °F 27% 29.88 in 10.0 mi NNW 5.8 mph - N/A   Clear
3:53 AM 53.1 °F 30.0 °F 41% 29.88 in 10.0 mi Calm Calm - N/A   Clear
4:53 AM 57.0 °F 26.1 °F 30% 29.89 in 10.0 mi North 4.6 mph - N/A   Clear
5:53 AM 55.0 °F 23.0 °F 29% 29.89 in 10.0 mi NW 6.9 mph - N/A   Clear
6:53 AM 55.0 °F 25.0 °F 31% 29.90 in 10.0 mi Calm Calm - N/A   Clear
7:53 AM 60.1 °F 28.0 °F 30% 29.92 in 10.0 mi NW 3.5 mph - N/A   Clear
8:53 AM 66.9 °F 30.9 °F 26% 29.92 in 10.0 mi West 3.5 mph - N/A   Scattered Clouds
9:53 AM 72.0 °F 21.9 °F 15% 29.93 in 10.0 mi SSE 6.9 mph - N/A   Overcast
10:53 AM 73.9 °F 23.0 °F 15% 29.92 in 10.0 mi East 5.8 mph - N/A   Clear
11:53 AM 75.9 °F 25.0 °F 15% 29.90 in 10.0 mi ESE 5.8 mph - N/A   Scattered Clouds
12:53 PM 78.1 °F 25.0 °F 14% 29.86 in 10.0 mi SE 6.9 mph - N/A   Mostly Cloudy
1:53 PM 80.1 °F 21.0 °F 11% 29.85 in 10.0 mi SSE 6.9 mph - N/A   Scattered Clouds
2:53 PM 79.0 °F 23.0 °F 13% 29.83 in 10.0 mi ESE 6.9 mph - N/A   Scattered Clouds
3:53 PM 78.1 °F 25.0 °F 14% 29.83 in 10.0 mi ESE 8.1 mph - N/A   Mostly Cloudy
4:53 PM 77.0 °F 28.0 °F 17% 29.84 in 10.0 mi ESE 8.1 mph - N/A   Clear
5:53 PM 73.9 °F 28.0 °F 18% 29.86 in 10.0 mi East 6.9 mph - N/A   Clear
6:53 PM 70.0 °F 26.1 °F 19% 29.87 in 10.0 mi East 3.5 mph - N/A   Clear
7:53 PM 69.1 °F 27.0 °F 21% 29.89 in 10.0 mi Calm Calm - N/A   Clear
8:53 PM 66.0 °F 27.0 °F 23% 29.91 in 10.0 mi North 3.5 mph - N/A   Clear
9:53 PM 61.0 °F 25.0 °F 25% 29.92 in 10.0 mi NNW 6.9 mph - N/A   Clear
10:53 PM 61.0 °F 25.0 °F 25% 29.91 in 10.0 mi NNW 6.9 mph - N/A   Clear
11:53 PM 61.0 °F 25.0 °F 25% 29.92 in 10.0 mi NNW 6.9 mph - N/A   Clear